Weather in Kolochava

Ukraine / Zakarpattia District     48°26′19″N   23°44′42″E
temp.,
°C
wind,
m/s
gust,
m/s
humid.,
%
clouds,
%
prec.,
mm/h
press.,
hPa
HPBL,
m
19 april, mon
mon1900:00+2ene119698 0.0 101829
03:00+1ese1196100 0.1 101852
06:00+1ese1199100 0.2 1017160
09:00+2e1198100 0.6 1017196
12:00+4ene0196100 0.7 1016235
15:00+6nnw1182100 1.1 1014731
18:00+5n0189100 1.4 1014330
21:00+3ne129799 2.1 1015206
20 april, tue
tue2000:00+3ne129796 0.1 1014122
03:00+3ne119481 0.2 101349
06:00+2ne1297100 0.1 1013197
09:00+3ne119590 0.3 1013313
12:00+4nne129695 0.9 1013318
15:00+8wsw127269 1.6 10111044
18:00+6w128096 2.5 1011575
21:00+2sw0094100 4.4 101416
21 april, wed
wed2100:00+1ssw119989 0.8 101535
03:00+3sw12100100 1.1 1014259
06:00+3sw1299100 0.6 1014430
09:00+2wsw12100100 2.0 1015452
12:00+3sw2397100 0.8 1016487
15:00+3ssw2599100 1.3 1016587
18:00+3ssw2596100 0.5 1016747
21:00+3s2499100 0.6 1017161
22 april, thu
thu2200:00+3s249989 0.1 1017151
03:00+3s259994 0.1 1017167
06:00+3ssw2899100 0.1 1017594
09:00+3ssw3998100 0.3 1017640
12:00+4ssw2899100 0.8 1018780
15:00+4ssw2799100 2.5 1017585
18:00+5ssw2899100 0.8 1016712
21:00+5sw26100100 2.6 1016677
23 april, fri
fri2300:00+4ssw2497100 1.6 1016245
03:00+1nnw23100100 5.7 1017253
06:00−1n2398100 2.5 1020233
09:000nw238255 2.8 1021831
12:00+3wnw2461100 0.1 10211735
15:00+4w3464100 0.5 10211372
18:00+3wnw366589 0.8 10221477
21:00−2nne119063 0.9 102610